Volver al catálogo

CZ-4C DEB

ActivoPO
NORAD 38294·DEBRIS·🇨🇳 China

Lanzado Nov 4, 2010 desde Taiyuan Satellite Launch Center

Loading…

Próximos Pases (próximas 24 horas)

TLE

ActualizadoSource: Space-Track

Época: Sep 14, 2026, 07:45 UTC

1 38294U 10059D   26257.32306078  .00000255  00000-0  24694-3 0  9992
2 38294  98.6356  99.5628 0259251 261.1216  96.0505 13.73912298781306

Sigue CZ-4C DEB en tiempo real con AllMySat

Download on the App Store